Terminal Aerodrome Forecast
Issued by NWS

Home | Current Version | Previous Version | Graphics & Text | Print | Product List | Glossary On
Versions: 1 2 3 4 5 6 7 8 9 10 11 12 13 14 15 16 17 18 19
000
FTUS43 KMPX 221300 AAA
TAFRWF
TAF AMD
KRWF 221358Z 2214/2312 18008KT 3/4SM BR VV002
     FM221700 20008KT 4SM BR OVC005
     FM222200 18009KT P6SM SCT008 BKN200
     FM230600 19008KT 4SM BR SCT150=

USA.gov is the U.S. government's official web portal to all federal, state and local government web resources and services.